Time,TemperatureF,DewpointF,PressureIn,WindDirection,WindDirectionDegrees,WindSpeedMPH,WindSpeedGustMPH,Humidity,HourlyPrecipIn,Conditions,Clouds,dailyrainin,SoftwareType,DateUTC
2013-02-09 00:09:00,37.2,36.0,30.27,NNE,21,0.0,0.0,94,0.00,,,0.00,weatherlink.com 1.10,2013-02-09 08:09:00,
2013-02-09 00:24:00,37.2,35.0,30.26,NNE,21,0.0,2.0,93,0.00,,,0.00,weatherlink.com 1.10,2013-02-09 08:24:00,
2013-02-09 00:39:00,37.3,35.0,30.26,NNE,22,2.0,2.0,92,0.00,,,0.00,weatherlink.com 1.10,2013-02-09 08:39:00,
2013-02-09 00:54:00,37.3,35.0,30.26,NNE,22,1.0,2.0,92,0.00,,,0.00,weatherlink.com 1.10,2013-02-09 08:54:00,
2013-02-09 01:09:00,37.1,35.0,30.26,NNE,22,0.0,3.0,93,0.00,,,0.00,weatherlink.com 1.10,2013-02-09 09:09:00,
2013-02-09 01:24:00,37.0,35.0,30.27,NNE,22,0.0,2.0,93,0.00,,,0.00,weatherlink.com 1.10,2013-02-09 09:24:00,
2013-02-09 01:39:00,37.0,35.0,30.26,NNE,22,0.0,3.0,93,0.00,,,0.00,weatherlink.com 1.10,2013-02-09 09:39:00,
2013-02-09 01:54:00,37.1,35.0,30.26,NNE,22,2.0,2.0,93,0.00,,,0.00,weatherlink.com 1.10,2013-02-09 09:54:00,
2013-02-09 02:09:00,37.1,35.0,30.26,NNE,22,0.0,2.0,93,0.00,,,0.00,weatherlink.com 1.10,2013-02-09 10:09:00,
2013-02-09 02:24:00,37.1,36.0,30.26,NNE,22,0.0,1.0,94,0.00,,,0.00,weatherlink.com 1.10,2013-02-09 10:24:00,
2013-02-09 02:39:00,37.2,36.0,30.26,NNE,22,0.0,0.0,94,0.00,,,0.00,weatherlink.com 1.10,2013-02-09 10:39:00,
2013-02-09 02:54:00,37.2,35.0,30.25,NNE,22,0.0,0.0,93,0.00,,,0.00,weatherlink.com 1.10,2013-02-09 10:54:00,
2013-02-09 03:09:00,37.1,36.0,30.25,NNE,22,0.0,0.0,94,0.00,,,0.00,weatherlink.com 1.10,2013-02-09 11:09:00,
2013-02-09 03:24:00,37.1,36.0,30.25,NNE,22,0.0,0.0,94,0.00,,,0.00,weatherlink.com 1.10,2013-02-09 11:24:00,
2013-02-09 03:39:00,37.1,36.0,30.25,NNE,22,0.0,0.0,94,0.00,,,0.00,weatherlink.com 1.10,2013-02-09 11:39:00,
2013-02-09 03:54:00,37.2,36.0,30.25,NNE,22,0.0,0.0,94,0.00,,,0.00,weatherlink.com 1.10,2013-02-09 11:54:00,
2013-02-09 04:09:00,37.3,36.0,30.25,NNE,22,0.0,0.0,94,0.00,,,0.00,weatherlink.com 1.10,2013-02-09 12:09:00,
2013-02-09 04:24:00,37.3,36.0,30.25,NNE,22,0.0,0.0,94,0.00,,,0.00,weatherlink.com 1.10,2013-02-09 12:24:00,
2013-02-09 04:39:00,37.3,36.0,30.25,NNE,22,0.0,0.0,94,0.00,,,0.00,weatherlink.com 1.10,2013-02-09 12:39:00,
2013-02-09 04:54:00,37.3,36.0,30.26,NNE,22,2.0,3.0,94,0.00,,,0.00,weatherlink.com 1.10,2013-02-09 12:54:00,
2013-02-09 05:09:00,37.3,36.0,30.26,NNE,22,0.0,4.0,94,0.00,,,0.00,weatherlink.com 1.10,2013-02-09 13:09:00,
2013-02-09 05:24:00,37.3,36.0,30.26,NNE,22,0.0,3.0,94,0.00,,,0.00,weatherlink.com 1.10,2013-02-09 13:24:00,
2013-02-09 05:39:00,37.3,36.0,30.26,NNE,22,0.0,2.0,94,0.00,,,0.00,weatherlink.com 1.10,2013-02-09 13:39:00,
2013-02-09 05:54:00,37.3,36.0,30.25,NNE,22,2.0,3.0,94,0.00,,,0.00,weatherlink.com 1.10,2013-02-09 13:54:00,
2013-02-09 06:09:00,37.0,36.0,30.25,NNE,25,0.0,3.0,95,0.00,,,0.00,weatherlink.com 1.10,2013-02-09 14:09:00,
2013-02-09 06:25:00,37.0,36.0,30.26,NNE,25,0.0,0.0,95,0.00,,,0.00,weatherlink.com 1.10,2013-02-09 14:25:00,
2013-02-09 06:40:00,37.1,36.0,30.25,NNE,25,0.0,2.0,95,0.00,,,0.00,weatherlink.com 1.10,2013-02-09 14:40:00,
2013-02-09 06:54:00,37.1,36.0,30.25,NNE,25,0.0,2.0,94,0.00,,,0.00,weatherlink.com 1.10,2013-02-09 14:54:00,
2013-02-09 07:10:00,37.1,36.0,30.25,NNE,25,1.0,3.0,94,0.00,,,0.00,weatherlink.com 1.10,2013-02-09 15:10:00,
2013-02-09 07:24:00,37.1,36.0,30.25,NNE,25,0.0,0.0,94,0.00,,,0.00,weatherlink.com 1.10,2013-02-09 15:24:00,
2013-02-09 07:40:00,37.1,36.0,30.25,NNE,25,0.0,0.0,95,0.00,,,0.00,weatherlink.com 1.10,2013-02-09 15:40:00,
2013-02-09 07:54:00,37.3,36.0,30.25,NNE,25,0.0,2.0,95,0.00,,,0.00,weatherlink.com 1.10,2013-02-09 15:54:00,
2013-02-09 08:10:00,37.4,36.0,30.25,NNE,25,0.0,4.0,95,0.00,,,0.00,weatherlink.com 1.10,2013-02-09 16:10:00,
2013-02-09 08:25:00,37.5,36.0,30.26,NNE,25,0.0,0.0,95,0.00,,,0.00,weatherlink.com 1.10,2013-02-09 16:25:00,
2013-02-09 08:39:00,37.7,37.0,30.25,NNE,25,0.0,0.0,96,0.00,,,0.00,weatherlink.com 1.10,2013-02-09 16:39:00,
2013-02-09 08:54:00,37.5,37.0,30.25,NNE,25,0.0,1.0,96,0.00,,,0.00,weatherlink.com 1.10,2013-02-09 16:54:00,
2013-02-09 09:09:00,37.4,36.0,30.26,NNE,25,0.0,2.0,96,0.00,,,0.00,weatherlink.com 1.10,2013-02-09 17:09:00,
2013-02-09 09:25:00,37.3,37.0,30.26,NNE,25,0.0,2.0,97,0.00,,,0.00,weatherlink.com 1.10,2013-02-09 17:25:00,
2013-02-09 09:40:00,37.4,37.0,30.26,NNE,25,0.0,0.0,97,0.00,,,0.00,weatherlink.com 1.10,2013-02-09 17:40:00,
2013-02-09 09:55:00,37.4,37.0,30.27,NNE,25,0.0,0.0,97,0.00,,,0.00,weatherlink.com 1.10,2013-02-09 17:55:00,
2013-02-09 10:10:00,37.7,37.0,30.27,NNE,25,0.0,2.0,98,0.00,,,0.00,weatherlink.com 1.10,2013-02-09 18:10:00,
2013-02-09 10:25:00,37.7,37.0,30.27,NNE,25,0.0,2.0,98,0.00,,,0.00,weatherlink.com 1.10,2013-02-09 18:25:00,
2013-02-09 10:40:00,37.6,37.0,30.27,NNE,25,0.0,2.0,98,0.00,,,0.00,weatherlink.com 1.10,2013-02-09 18:40:00,
2013-02-09 10:55:00,37.7,37.0,30.27,NNE,25,0.0,2.0,98,0.00,,,0.00,weatherlink.com 1.10,2013-02-09 18:55:00,
2013-02-09 11:10:00,37.8,37.0,30.27,NNE,25,0.0,2.0,98,0.00,,,0.00,weatherlink.com 1.10,2013-02-09 19:10:00,
2013-02-09 11:25:00,37.8,37.0,30.27,NNE,26,0.0,0.0,98,0.00,,,0.00,weatherlink.com 1.10,2013-02-09 19:25:00,
2013-02-09 11:40:00,37.8,37.0,30.27,NNE,26,0.0,0.0,98,0.00,,,0.00,weatherlink.com 1.10,2013-02-09 19:40:00,
2013-02-09 11:55:00,37.9,37.0,30.27,NNE,26,0.0,2.0,98,0.00,,,0.00,weatherlink.com 1.10,2013-02-09 19:55:00,
2013-02-09 12:10:00,38.2,38.0,30.26,NNE,26,0.0,3.0,98,0.00,,,0.00,weatherlink.com 1.10,2013-02-09 20:10:00,
2013-02-09 12:25:00,38.4,38.0,30.26,NNE,26,0.0,3.0,98,0.00,,,0.00,weatherlink.com 1.10,2013-02-09 20:25:00,
2013-02-09 12:40:00,38.6,38.0,30.26,NNE,26,0.0,1.0,98,0.00,,,0.00,weatherlink.com 1.10,2013-02-09 20:40:00,
2013-02-09 12:55:00,38.6,38.0,30.27,NNE,26,0.0,1.0,98,0.00,,,0.00,weatherlink.com 1.10,2013-02-09 20:55:00,
2013-02-09 13:10:00,38.7,38.0,30.26,NNE,26,0.0,1.0,98,0.00,,,0.00,weatherlink.com 1.10,2013-02-09 21:10:00,
2013-02-09 13:25:00,38.5,38.0,30.26,NNE,25,0.0,3.0,97,0.00,,,0.00,weatherlink.com 1.10,2013-02-09 21:25:00,
2013-02-09 13:40:00,38.4,38.0,30.26,NNE,25,0.0,0.0,98,0.00,,,0.00,weatherlink.com 1.10,2013-02-09 21:40:00,
2013-02-09 13:55:00,38.3,38.0,30.26,NNE,25,0.0,0.0,98,0.00,,,0.00,weatherlink.com 1.10,2013-02-09 21:55:00,
2013-02-09 14:10:00,38.6,38.0,30.26,NNE,25,0.0,0.0,98,0.00,,,0.00,weatherlink.com 1.10,2013-02-09 22:10:00,
2013-02-09 14:25:00,38.8,38.0,30.26,NNE,25,2.0,3.0,98,0.01,,,0.01,weatherlink.com 1.10,2013-02-09 22:25:00,
2013-02-09 14:40:00,38.8,38.0,30.27,NNE,25,0.0,1.0,97,0.01,,,0.01,weatherlink.com 1.10,2013-02-09 22:40:00,
2013-02-09 14:55:00,38.9,38.0,30.27,NNE,25,0.0,2.0,97,0.01,,,0.01,weatherlink.com 1.10,2013-02-09 22:55:00,
2013-02-09 15:10:00,38.9,38.0,30.27,NNE,25,0.0,0.0,97,0.01,,,0.01,weatherlink.com 1.10,2013-02-09 23:10:00,
2013-02-09 15:25:00,39.1,38.0,30.27,NNE,25,0.0,0.0,97,0.01,,,0.02,weatherlink.com 1.10,2013-02-09 23:25:00,
2013-02-09 15:40:00,39.2,39.0,30.27,NNE,25,1.0,2.0,98,0.01,,,0.02,weatherlink.com 1.10,2013-02-09 23:40:00,
2013-02-09 15:55:00,39.3,39.0,30.28,NNE,25,0.0,2.0,98,0.01,,,0.02,weatherlink.com 1.10,2013-02-09 23:55:00,
2013-02-09 16:10:00,39.3,39.0,30.28,NNE,25,2.0,4.0,98,0.01,,,0.02,weatherlink.com 1.10,2013-02-10 00:10:00,
2013-02-09 16:25:00,39.1,38.0,30.28,NNE,24,0.0,4.0,97,0.00,,,0.02,weatherlink.com 1.10,2013-02-10 00:25:00,
2013-02-09 16:40:00,39.0,38.0,30.28,NNE,22,2.0,6.0,97,0.00,,,0.02,weatherlink.com 1.10,2013-02-10 00:40:00,
2013-02-09 16:55:00,38.8,38.0,30.28,NNE,19,4.0,4.0,97,0.00,,,0.02,weatherlink.com 1.10,2013-02-10 00:55:00,
2013-02-09 17:10:00,38.7,38.0,30.28,NNE,19,2.0,5.0,97,0.00,,,0.02,weatherlink.com 1.10,2013-02-10 01:10:00,
2013-02-09 17:25:00,38.4,38.0,30.29,NNE,18,0.0,3.0,97,0.00,,,0.02,weatherlink.com 1.10,2013-02-10 01:25:00,
2013-02-09 17:40:00,38.2,38.0,30.29,NNE,18,0.0,4.0,97,0.00,,,0.02,weatherlink.com 1.10,2013-02-10 01:40:00,
2013-02-09 17:55:00,37.9,37.0,30.29,NNE,18,0.0,1.0,97,0.00,,,0.02,weatherlink.com 1.10,2013-02-10 01:55:00,
2013-02-09 18:10:00,37.7,37.0,30.29,NNE,18,0.0,2.0,97,0.00,,,0.02,weatherlink.com 1.10,2013-02-10 02:10:00,
2013-02-09 18:25:00,37.5,37.0,30.29,NNE,18,0.0,0.0,97,0.00,,,0.02,weatherlink.com 1.10,2013-02-10 02:25:00,
2013-02-09 18:40:00,37.5,37.0,30.29,NNE,20,2.0,2.0,98,0.00,,,0.02,weatherlink.com 1.10,2013-02-10 02:40:00,
2013-02-09 18:55:00,37.6,37.0,30.29,NNE,22,2.0,3.0,98,0.00,,,0.02,weatherlink.com 1.10,2013-02-10 02:55:00,
2013-02-09 19:10:00,37.5,37.0,30.29,NNE,22,2.0,3.0,98,0.00,,,0.02,weatherlink.com 1.10,2013-02-10 03:10:00,
2013-02-09 19:25:00,37.2,37.0,30.29,NNE,22,0.0,2.0,97,0.00,,,0.02,weatherlink.com 1.10,2013-02-10 03:25:00,
2013-02-09 19:40:00,37.0,37.0,30.29,NNE,22,0.0,3.0,98,0.00,,,0.02,weatherlink.com 1.10,2013-02-10 03:40:00,
2013-02-09 19:55:00,36.9,36.0,30.29,NNE,22,0.0,2.0,98,0.00,,,0.02,weatherlink.com 1.10,2013-02-10 03:55:00,
2013-02-09 20:10:00,36.9,36.0,30.30,NNE,22,0.0,2.0,98,0.00,,,0.02,weatherlink.com 1.10,2013-02-10 04:10:00,
2013-02-09 20:25:00,36.8,36.0,30.30,NNE,22,0.0,1.0,98,0.00,,,0.02,weatherlink.com 1.10,2013-02-10 04:25:00,
2013-02-09 20:40:00,36.7,36.0,30.30,NNE,22,1.0,2.0,98,0.00,,,0.02,weatherlink.com 1.10,2013-02-10 04:40:00,
2013-02-09 20:55:00,36.7,36.0,30.31,NNE,22,0.0,0.0,98,0.00,,,0.02,weatherlink.com 1.10,2013-02-10 04:55:00,
2013-02-09 21:10:00,36.7,36.0,30.31,NNE,22,2.0,3.0,98,0.00,,,0.02,weatherlink.com 1.10,2013-02-10 05:10:00,
2013-02-09 21:25:00,36.8,36.0,30.32,NNE,22,0.0,3.0,98,0.00,,,0.02,weatherlink.com 1.10,2013-02-10 05:25:00,
2013-02-09 21:40:00,36.8,36.0,30.32,NNE,22,1.0,3.0,98,0.00,,,0.02,weatherlink.com 1.10,2013-02-10 05:40:00,
2013-02-09 21:55:00,36.8,36.0,30.32,NNE,22,0.0,3.0,98,0.00,,,0.02,weatherlink.com 1.10,2013-02-10 05:55:00,
2013-02-09 22:10:00,36.9,36.0,30.32,NNE,22,0.0,3.0,98,0.00,,,0.02,weatherlink.com 1.10,2013-02-10 06:10:00,
2013-02-09 22:25:00,36.8,36.0,30.32,NNE,22,0.0,0.0,98,0.00,,,0.02,weatherlink.com 1.10,2013-02-10 06:25:00,
2013-02-09 22:40:00,36.7,36.0,30.33,NNE,22,1.0,5.0,98,0.00,,,0.02,weatherlink.com 1.10,2013-02-10 06:40:00,
2013-02-09 22:56:00,36.7,36.0,30.33,NNE,22,0.0,3.0,98,0.00,,,0.02,weatherlink.com 1.10,2013-02-10 06:56:00,
2013-02-09 23:11:00,36.6,36.0,30.33,NNE,22,2.0,3.0,98,0.00,,,0.02,weatherlink.com 1.10,2013-02-10 07:11:00,
2013-02-09 23:25:00,36.4,36.0,30.33,NNE,22,2.0,3.0,97,0.00,,,0.02,weatherlink.com 1.10,2013-02-10 07:25:00,
2013-02-09 23:41:00,36.0,35.0,30.33,North,5,1.0,5.0,97,0.00,,,0.02,weatherlink.com 1.10,2013-02-10 07:41:00,
2013-02-09 23:55:00,35.5,35.0,30.33,North,9,2.0,3.0,96,0.00,,,0.02,weatherlink.com 1.10,2013-02-10 07:55:00,